�N����,����,�~����,�C��,���x,�C��,����,���ϕ���,�ő�u�ԕ���,�ő厞����,���˗�,�I�_���x,�n�����x,�ő啗���N��,DTYPE
"22/06/02","00:10",0.0,15.9,81.9,1002.6,310.3,1.3,2.0,308.3,0.00,12.9,19.0,"00:03:36",1
"22/06/02","00:20",0.0,15.9,82.1,1002.2,313.6,1.3,1.9,321.2,0.00,12.9,19.1,"00:17:28",1
"22/06/02","00:30",0.0,15.6,82.7,1002.4,303.9,1.2,1.8,322.1,0.00,12.7,18.9,"00:23:52",1
"22/06/02","00:40",0.0,15.3,83.4,1002.4,289.4,1.1,1.8,297.3,0.00,12.5,18.8,"00:35:44",1
"22/06/02","00:50",0.0,15.3,83.9,1002.4,280.4,1.2,1.7,300.5,0.00,12.6,19.0,"00:43:52",1
"22/06/02","01:00",0.0,15.4,84.3,1002.2,326.5,1.3,1.7,326.6,0.00,12.8,18.7,"00:55:52",1
"22/06/02","01:10",0.0,15.1,85.0,1002.4,332.7,1.2,1.9,321.6,0.00,12.6,18.8,"01:05:04",1
"22/06/02","01:20",0.0,14.7,85.4,1002.4,293.3,0.7,1.0,325.8,0.00,12.3,18.8,"01:17:44",1
"22/06/02","01:30",0.0,14.5,86.0,1002.2,301.8,1.0,1.8,320.5,0.00,12.2,18.8,"01:26:48",1
"22/06/02","01:40",0.0,14.4,86.5,1002.4,299.9,0.8,1.4,319.3,0.00,12.2,18.6,"01:38:08",1
"22/06/02","01:50",0.0,14.4,87.0,1002.4,297.9,1.1,1.4,321.7,0.00,12.3,18.5,"01:40:08",1
"22/06/02","02:00",0.0,14.3,87.2,1002.4,310.2,0.7,1.6,323.3,0.00,12.2,18.6,"01:57:20",1
"22/06/02","02:10",0.0,14.4,87.7,1002.2,329.9,1.5,2.0,322.3,0.00,12.4,18.6,"02:00:48",1
"22/06/02","02:20",0.0,14.2,88.2,1002.6,323.6,1.2,1.6,322.3,0.00,12.3,18.6,"02:10:40",1
"22/06/02","02:30",0.0,13.8,88.5,1002.2,286.8,0.6,1.4,323.7,0.00,12.0,18.4,"02:20:16",1
"22/06/02","02:40",0.0,13.8,88.9,1002.2,318.6,1.3,1.6,324.8,0.00,12.0,18.4,"02:34:40",1
"22/06/02","02:50",0.0,13.7,89.2,1002.2,300.5,1.0,1.2,320.5,0.00,12.0,18.4,"02:40:08",1
"22/06/02","03:00",0.0,13.7,89.7,1002.4,316.6,1.0,1.7,315.9,0.00,12.1,18.4,"02:57:52",1
"22/06/02","03:10",0.0,13.5,89.9,1002.6,318.8,1.2,1.7,322.9,0.00,11.9,18.3,"03:04:48",1
"22/06/02","03:20",0.0,13.3,90.3,1002.4,311.4,1.1,1.7,320.1,0.00,11.8,18.2,"03:10:16",1
"22/06/02","03:30",0.0,13.5,90.7,1002.4,328.4,1.2,1.6,329.0,0.00,12.1,18.4,"03:22:08",1
"22/06/02","03:40",0.0,13.4,90.9,1002.9,309.9,1.2,1.9,311.5,0.00,12.0,18.2,"03:37:12",1
"22/06/02","03:50",0.0,13.6,91.1,1002.4,307.9,1.6,2.1,313.5,0.00,12.2,18.0,"03:42:24",1
"22/06/02","04:00",0.0,13.5,91.1,1002.6,296.9,0.8,1.3,310.6,0.00,12.1,18.2,"03:56:00",1
"22/06/02","04:10",0.0,13.3,91.4,1002.9,300.7,0.8,1.9,318.7,0.00,12.0,18.1,"04:07:18",1
"22/06/02","04:20",0.0,13.1,91.6,1003.1,313.5,1.3,1.8,320.5,0.00,11.8,18.0,"04:15:00",1
"22/06/02","04:30",0.0,13.3,91.8,1003.1,332.5,1.3,1.6,321.2,0.00,12.0,17.9,"04:20:32",1
"22/06/02","04:40",0.0,13.2,91.9,1002.9,328.3,1.3,1.7,330.7,0.00,12.0,17.9,"04:31:12",1
"22/06/02","04:50",0.0,13.0,92.0,1003.1,295.7,1.1,1.7,319.0,0.00,11.8,18.1,"04:47:46",1
"22/06/02","05:00",0.0,12.6,92.3,1003.4,302.7,1.2,2.0,325.3,0.00,11.4,17.8,"04:59:48",1
"22/06/02","05:10",0.0,12.7,92.5,1003.1,324.8,1.6,2.5,322.2,0.00,11.6,17.9,"05:02:46",1
"22/06/02","05:20",0.0,12.7,92.6,1003.4,291.0,1.3,2.1,323.2,0.00,11.6,17.7,"05:11:46",1
"22/06/02","05:30",0.0,12.8,92.7,1003.4,300.9,1.2,1.8,319.6,0.00,11.7,17.9,"05:25:28",1
"22/06/02","05:40",0.0,12.9,92.9,1003.8,317.1,1.0,1.9,328.6,0.00,11.8,17.8,"05:38:50",1
"22/06/02","05:50",0.0,13.1,92.9,1003.8,330.2,1.6,2.0,329.9,0.00,12.0,17.8,"05:40:16",1
"22/06/02","06:00",0.0,13.1,93.0,1003.8,301.4,0.7,1.4,323.5,0.00,12.0,17.6,"05:50:40",1
"22/06/02","06:10",0.0,13.3,93.0,1004.3,295.1,0.2,0.6,304.5,0.00,12.2,17.6,"06:00:08",1
"22/06/02","06:20",0.0,13.6,93.2,1004.1,325.6,1.1,1.7,333.3,0.01,12.6,17.6,"06:18:56",1
"22/06/02","06:30",0.0,14.2,93.2,1004.5,321.1,1.1,1.3,328.8,0.02,13.2,17.6,"06:20:16",1
"22/06/02","06:40",0.0,15.3,93.1,1004.5,316.0,0.6,1.1,328.6,0.04,14.2,17.6,"06:35:52",1
"22/06/02","06:50",0.0,16.2,93.0,1004.3,332.5,1.0,1.1,329.5,0.06,15.1,17.7,"06:44:40",1
"22/06/02","07:00",0.0,16.9,92.7,1004.8,333.2,1.0,1.6,339.8,0.08,15.8,17.4,"06:55:52",1
"22/06/02","07:10",0.0,17.8,92.3,1004.5,330.0,0.8,1.4,335.0,0.11,16.6,17.4,"07:04:48",1
"22/06/02","07:20",0.0,18.8,91.3,1005.0,333.4,0.7,1.1,334.6,0.13,17.4,17.4,"07:10:16",1
"22/06/02","07:30",0.0,18.9,89.9,1005.2,317.0,0.2,0.8,349.2,0.15,17.2,17.5,"07:20:32",1
"22/06/02","07:40",0.0,19.4,86.1,1004.8,337.5,0.1,0.8,45.8,0.18,17.1,17.7,"07:31:44",1
"22/06/02","07:50",0.0,20.5,82.8,1005.0,331.7,0.5,1.4,349.5,0.20,17.5,17.3,"07:43:44",1
"22/06/02","08:00",0.0,20.7,74.6,1004.5,296.4,0.6,1.2,251.5,0.23,16.1,17.4,"07:57:04",1
"22/06/02","08:10",0.0,21.6,70.3,1004.1,21.8,0.2,0.9,159.6,0.25,16.0,17.4,"08:06:16",1
"22/06/02","08:20",0.0,22.3,65.1,1003.8,358.8,0.8,1.8,9.2,0.28,15.5,17.3,"08:14:16",1
"22/06/02","08:30",0.0,22.9,62.9,1003.8,11.3,0.8,1.7,28.7,0.30,15.5,17.5,"08:27:04",1
"22/06/02","08:40",0.0,23.2,61.5,1003.6,21.4,0.7,1.8,349.1,0.32,15.4,17.6,"08:30:56",1
"22/06/02","08:50",0.0,23.3,60.3,1003.4,164.4,0.8,1.8,187.8,0.35,15.2,17.6,"08:44:08",1
"22/06/02","09:00",0.0,23.6,61.3,1002.9,142.6,0.6,2.1,113.3,0.37,15.8,17.6,"08:55:52",1
"22/06/02","09:10",0.0,24.3,62.0,1003.1,173.5,0.5,1.4,118.9,0.39,16.6,17.6,"09:01:52",1
"22/06/02","09:20",0.0,24.9,59.4,1002.6,36.1,0.7,2.0,55.1,0.42,16.5,17.6,"09:16:56",1
"22/06/02","09:30",0.0,25.0,59.3,1002.6,39.5,0.8,1.8,20.2,0.43,16.6,17.7,"09:29:20",1
"22/06/02","09:40",0.0,25.5,60.5,1002.6,29.3,1.1,2.6,3.2,0.46,17.3,17.6,"09:34:48",1
"22/06/02","09:50",0.0,25.5,57.3,1002.6,166.1,0.8,2.6,148.0,0.47,16.5,17.7,"09:44:48",1
"22/06/02","10:00",0.0,25.5,58.2,1002.6,200.8,1.0,2.6,239.6,0.49,16.7,17.8,"09:51:36",1
"22/06/02","10:10",0.0,26.1,53.9,1002.9,38.7,0.8,2.5,316.8,0.50,16.1,18.0,"10:07:18",1
"22/06/02","10:20",0.0,26.5,51.4,1002.9,124.4,1.1,2.4,137.2,0.52,15.7,17.7,"10:12:08",1
"22/06/02","10:30",0.0,26.8,49.2,1003.1,9.9,1.0,1.9,349.9,0.53,15.3,17.8,"10:22:16",1
"22/06/02","10:40",0.0,27.1,50.5,1002.9,149.6,0.8,2.0,157.7,0.55,16.0,18.0,"10:35:44",1
"22/06/02","10:50",0.0,27.8,48.6,1002.9,37.9,0.8,2.6,359.6,0.56,16.0,17.9,"10:45:12",1
"22/06/02","11:00",0.0,27.9,46.7,1002.6,116.5,1.0,2.0,104.4,0.57,15.5,17.9,"10:56:40",1
"22/06/02","11:10",0.0,27.7,45.6,1002.9,162.0,1.2,2.9,146.5,0.58,14.9,18.4,"11:07:04",1
"22/06/02","11:20",0.0,28.0,47.4,1002.9,157.5,1.1,2.8,103.0,0.58,15.8,18.2,"11:19:20",1
"22/06/02","11:30",0.0,27.8,48.9,1002.6,164.5,1.5,3.5,211.3,0.59,16.1,18.2,"11:25:04",1
"22/06/02","11:40",0.0,28.0,48.6,1002.9,176.3,1.5,3.4,205.2,0.60,16.2,18.3,"11:37:20",1
"22/06/02","11:50",0.0,28.2,49.6,1002.4,181.7,1.6,3.5,197.3,0.60,16.7,18.5,"11:44:48",1
"22/06/02","12:00",0.0,28.7,46.4,1002.4,155.6,1.5,4.7,173.6,0.60,16.1,18.6,"11:51:12",1
"22/06/02","12:10",0.0,28.4,48.1,1002.4,194.1,1.7,4.1,181.3,0.60,16.4,18.6,"12:07:28",1
"22/06/02","12:20",0.0,28.3,46.7,1001.7,162.2,2.1,3.9,172.3,0.60,15.9,18.7,"12:11:44",1
"22/06/02","12:30",0.0,28.7,45.9,1001.9,164.4,1.6,4.2,189.5,0.61,16.0,18.7,"12:27:36",1
"22/06/02","12:40",0.0,29.5,44.0,1001.9,133.5,1.0,2.7,162.2,0.61,16.0,18.7,"12:32:00",1
"22/06/02","12:50",0.0,29.0,40.8,1001.9,203.6,1.8,3.9,214.3,0.60,14.4,18.8,"12:45:12",1
"22/06/02","13:00",0.0,29.1,42.8,1001.7,215.9,2.0,5.8,212.4,0.60,15.2,19.0,"12:51:52",1
"22/06/02","13:10",0.0,29.5,43.1,1001.7,165.4,1.7,5.5,145.2,0.60,15.7,18.8,"13:06:48",1
"22/06/02","13:20",0.0,29.9,40.7,1001.9,116.6,1.6,3.5,193.3,0.59,15.2,18.9,"13:10:24",1
"22/06/02","13:30",0.0,30.2,40.8,1001.7,186.2,1.6,3.6,157.1,0.59,15.5,19.2,"13:20:08",1
"22/06/02","13:40",0.0,29.9,36.6,1001.5,184.7,2.1,4.1,215.3,0.58,13.5,19.2,"13:30:02",1
"22/06/02","13:50",0.0,30.5,38.6,1001.2,182.2,1.3,3.7,199.3,0.57,14.9,19.2,"13:40:40",1
"22/06/02","14:00",0.0,30.3,37.0,1001.0,168.2,2.0,4.0,194.0,0.56,14.0,19.3,"13:50:08",1
"22/06/02","14:10",0.0,30.3,35.4,1001.2,179.4,1.6,3.5,193.5,0.54,13.4,19.3,"14:08:56",1
"22/06/02","14:20",0.0,30.2,35.4,1001.5,222.2,1.8,5.2,217.5,0.53,13.3,19.2,"14:14:48",1
"22/06/02","14:30",0.0,30.5,35.5,1001.7,180.2,1.5,3.4,192.5,0.52,13.6,19.3,"14:24:00",1
"22/06/02","14:40",0.0,30.6,35.8,1001.0,148.6,1.6,4.2,127.8,0.50,13.8,19.5,"14:30:02",1
"22/06/02","14:50",0.0,30.4,34.8,1001.0,159.7,2.1,4.0,187.6,0.49,13.2,19.5,"14:43:44",1
"22/06/02","15:00",0.0,30.3,34.8,1000.8,174.3,2.3,3.7,251.3,0.47,13.1,19.6,"14:57:44",1
"22/06/02","15:10",0.0,30.4,33.4,1000.8,168.2,1.5,2.8,179.0,0.41,12.6,19.7,"15:09:12",1
"22/06/02","15:20",0.0,30.2,33.2,1000.0,171.9,2.8,5.7,226.5,0.44,12.3,19.8,"15:14:40",1
"22/06/02","15:30",0.0,30.6,33.4,1000.0,181.1,2.1,4.5,179.2,0.42,12.7,19.8,"15:20:02",1
"22/06/02","15:40",0.0,30.4,31.3,1000.5,177.6,2.2,5.0,189.8,0.40,11.6,19.9,"15:30:32",1
"22/06/02","15:50",0.0,30.8,30.7,1000.5,203.5,1.6,4.7,242.1,0.38,11.6,20.0,"15:40:02",1
"22/06/02","16:00",0.0,30.8,31.0,1000.5,274.1,1.6,3.6,242.5,0.36,11.8,20.0,"15:50:08",1
"22/06/02","16:10",0.0,30.9,31.2,1000.8,203.4,1.2,3.4,213.6,0.34,12.0,20.0,"16:00:02",1
"22/06/02","16:20",0.0,31.3,31.7,1000.5,248.4,1.1,3.2,225.8,0.32,12.5,20.1,"16:11:04",1
"22/06/02","16:30",0.0,30.3,31.5,1000.5,227.1,2.5,4.2,235.1,0.29,11.6,20.1,"16:22:08",1
"22/06/02","16:40",0.0,30.5,32.1,1000.8,228.1,1.6,3.5,237.6,0.27,12.0,20.2,"16:38:48",1
"22/06/02","16:50",0.0,30.5,34.1,1000.8,225.3,1.7,3.3,229.6,0.24,13.0,20.3,"16:42:40",1
"22/06/02","17:00",0.0,30.4,34.1,1000.5,242.0,1.5,3.3,243.6,0.22,12.9,20.2,"16:55:12",1
"22/06/02","17:10",0.0,30.2,33.0,1000.3,263.5,1.5,4.0,240.5,0.20,12.2,20.4,"17:05:36",1
"22/06/02","17:20",0.0,30.3,35.3,1000.8,274.7,1.1,3.3,244.0,0.14,13.3,20.3,"17:17:04",1
"22/06/02","17:30",0.0,30.0,33.6,1000.3,268.4,1.7,3.9,253.1,0.04,12.3,20.4,"17:28:40",1
"22/06/02","17:40",0.0,29.6,32.3,1000.5,252.3,2.0,3.9,247.9,0.03,11.4,20.5,"17:31:36",1
"22/06/02","17:50",0.0,29.4,30.6,999.8,250.5,1.8,3.6,241.2,0.03,10.4,20.3,"17:48:32",1
"22/06/02","18:00",0.0,29.3,31.8,1000.3,248.4,1.8,4.8,198.8,0.02,10.9,20.6,"17:50:56",1
"22/06/02","18:10",0.0,29.1,30.4,999.8,243.6,1.5,4.0,230.5,0.02,10.0,20.5,"18:05:44",1
"22/06/02","18:20",0.0,28.9,31.2,1000.0,256.1,1.7,3.5,238.8,0.02,10.2,20.5,"18:13:04",1
"22/06/02","18:30",0.0,28.5,31.0,999.8,247.8,1.7,3.1,247.0,0.01,9.8,20.4,"18:23:12",1
"22/06/02","18:40",0.0,28.1,31.4,999.6,260.5,1.8,4.0,249.2,0.01,9.6,20.6,"18:33:28",1
"22/06/02","18:50",0.0,27.8,31.7,999.6,264.5,1.5,3.4,250.9,0.01,9.5,20.6,"18:44:40",1
"22/06/02","19:00",0.0,27.3,32.9,999.3,266.0,1.3,3.2,244.6,0.01,9.6,20.5,"18:59:20",1
"22/06/02","19:10",0.0,27.0,33.9,999.6,281.5,1.3,2.4,241.6,0.00,9.8,20.6,"19:01:28",1
"22/06/02","19:20",0.0,26.1,39.2,1000.3,310.8,1.6,3.3,344.2,0.00,11.2,20.6,"19:15:44",1
"22/06/02","19:30",0.0,24.6,42.9,1000.3,334.0,2.0,3.3,351.1,0.00,11.2,20.5,"19:23:36",1
"22/06/02","19:40",0.0,23.9,44.7,1000.5,326.5,2.1,2.9,307.7,0.00,11.2,20.5,"19:32:32",1
"22/06/02","19:50",0.0,23.7,44.9,1000.5,324.8,2.6,3.6,328.4,0.00,11.1,20.5,"19:42:40",1
"22/06/02","20:00",0.0,23.5,45.4,1001.0,333.9,3.2,5.1,345.9,0.00,11.1,20.5,"19:57:12",1
"22/06/02","20:10",0.0,23.2,45.4,1001.2,326.9,2.6,4.5,310.7,0.00,10.8,20.4,"20:01:28",1
"22/06/02","20:20",0.0,22.9,46.9,1001.5,331.0,2.6,3.9,330.3,0.00,11.0,20.5,"20:11:12",1
"22/06/02","20:30",0.0,22.6,48.5,1001.7,337.4,2.6,3.9,332.0,0.00,11.2,20.4,"20:22:24",1
"22/06/02","20:40",0.0,22.1,50.1,1002.2,339.1,1.5,2.8,339.9,0.00,11.3,20.3,"20:32:16",1
"22/06/02","20:50",0.0,22.0,51.0,1002.2,354.0,1.3,2.7,347.9,0.00,11.4,20.4,"20:42:16",1
"22/06/02","21:00",0.0,22.0,52.4,1002.9,350.0,1.0,2.4,348.4,0.00,11.9,20.4,"20:50:24",1
"22/06/02","21:10",0.0,21.5,55.9,1002.6,332.2,0.8,2.2,339.5,0.00,12.4,20.2,"21:09:36",1
"22/06/02","21:20",0.0,20.6,60.6,1002.9,341.2,1.8,2.8,335.4,0.00,12.8,20.2,"21:10:40",1
"22/06/02","21:30",0.0,20.2,59.6,1002.9,335.5,2.3,3.3,335.6,0.00,12.1,20.2,"21:23:04",1
"22/06/02","21:40",0.0,20.1,59.6,1003.1,334.0,2.7,4.2,334.3,0.00,12.0,20.1,"21:38:32",1
"22/06/02","21:50",0.0,19.9,60.6,1003.6,327.1,2.6,3.5,334.0,0.00,12.1,20.1,"21:40:08",1
"22/06/02","22:00",0.0,19.5,60.9,1003.6,314.6,1.8,3.1,325.1,0.00,11.8,20.2,"21:52:24",1
"22/06/02","22:10",0.0,19.1,61.6,1003.6,310.3,1.2,1.7,328.8,0.00,11.6,20.0,"22:03:12",1
"22/06/02","22:20",0.0,18.9,62.7,1003.8,305.9,1.5,1.9,336.0,0.00,11.7,20.1,"22:15:04",1
"22/06/02","22:30",0.0,18.6,64.5,1003.6,329.6,1.8,2.6,347.7,0.00,11.8,20.1,"22:27:20",1
"22/06/02","22:40",0.0,18.5,65.0,1003.6,325.4,2.2,3.4,331.4,0.00,11.8,20.0,"22:33:04",1
"22/06/02","22:50",0.0,18.4,65.3,1003.1,302.7,1.7,2.6,326.0,0.00,11.8,19.8,"22:48:56",1
"22/06/02","23:00",0.0,18.1,65.9,1003.8,314.7,1.7,2.6,323.4,0.00,11.7,19.8,"22:53:44",1
"22/06/02","23:10",0.0,18.0,66.7,1003.6,309.3,1.8,2.6,313.8,0.00,11.8,19.8,"23:01:04",1
"22/06/02","23:20",0.0,17.8,67.4,1003.8,307.4,2.0,3.4,305.1,0.00,11.7,19.8,"23:17:04",1
"22/06/02","23:30",0.0,17.9,68.0,1003.6,329.9,2.3,3.5,316.9,0.00,12.0,19.8,"23:25:12",1
"22/06/02","23:40",0.0,17.7,68.8,1003.4,321.1,1.8,2.8,337.5,0.00,11.9,19.6,"23:32:56",1
"22/06/02","23:50",0.0,17.7,69.4,1003.6,304.2,2.2,3.5,307.1,0.00,12.1,19.7,"23:42:16",1
"22/06/02","24:00",0.0,17.8,69.7,1003.1,323.2,3.0,5.1,316.4,0.00,12.2,19.7,"23:55:52",1
